www.pogodaiklimat.ru
ПОГОДА в Гриффин
Время
и дата
06:35 22.04
06:55 22.04
07:15 22.04
07:35 22.04
07:55 22.04
08:15 22.04
08:35 22.04
08:55 22.04
09:15 22.04
09:35 22.04
10:00 22.04
10:15 22.04
10:35 22.04
10:55 22.04
11:15 22.04
11:35 22.04
11:55 22.04
12:15 22.04
12:35 22.04
12:55 22.04
13:15 22.04
13:35 22.04
13:55 22.04
14:15 22.04
14:35 22.04
14:55 22.04
15:15 22.04
15:35 22.04
15:55 22.04
16:15 22.04
16:35 22.04
16:55 22.04
17:15 22.04
17:35 22.04
17:55 22.04
18:15 22.04
18:35 22.04
18:55 22.04
19:15 22.04
19:35 22.04
19:55 22.04
20:15 22.04
20:35 22.04
20:55 22.04
21:15 22.04
21:35 22.04
21:55 22.04
22:15 22.04
Ветер
(напр.,м/с)
Видим. Явления Облачность Т
(С)
Тd
(С)
f
(%)
Тe
(С)
Тes
(С)
Комфортность P
(гПа)
Po
(гПа)
Тmin
(С)
Tmax
(С)
R
(мм)
R24
(мм)
S
(см)
штиль 0 16 км ясно +3.0 -5.0 56 +3 +3 987.3
штиль 0 16 км ясно +3.0 -4.0 60 +2 +2 988.0
штиль 0 16 км ясно +4.0 -5.0 52 +4 +5 988.3
штиль 0 16 км ясно +5.0 -5.0 48 +5 +6 988.3
СВ 1 16 км ясно +6.0 -4.0 49 +4 +5 988.6
СВ 1 16 км ясно +7.0 -5.0 42 +6 +9 989.0
С 1 16 км ясно +7.0 -6.0 39 +5 +8 989.3
СВ 1 16 км ясно +8.0 -5.0 39 +7 +10 989.3
СВ 1 16 км ясно +9.0 -7.0 32 +7 +14 989.3
С 1 16 км ясно +10.0 -7.0 29 +9 +17 989.3
В 1 16 км ясно +10.0 -7.0 29 +9 +22 опасность
простуды
989.6
штиль 0 16 км ясно +10.0 -8.0 27 +10 +27 опасность
простуды
989.6
СВ 1 16 км ясно +11.0 -8.0 26 +10 +20 опасность
простуды
989.6
С 1 16 км ясно +11.0 -8.0 26 +10 +23 опасность
простуды
989.3
СВ 1 16 км ясно +12.0 -8.0 24 +11 +25 опасность
простуды
989.0
В 1 16 км ясно +12.0 -7.0 26 +12 +28 опасность
простуды
989.0
В 1 16 км ясно +13.0 -7.0 24 +12 +26 опасность
простуды
988.6
СЗ 1 16 км ясно +13.0 -7.0 24 +13 +32 опасность
простуды
988.3
С 1 16 км ясно +13.0 -7.0 24 +13 +32 опасность
простуды
988.3
СЗ 1 16 км ясно +13.0 -7.0 24 +13 +32 опасность
простуды
988.3
штиль 0 16 км ясно +13.0 -7.0 24 +13 +39 опасность
простуды
987.6
штиль 0 16 км ясно +13.0 -7.0 24 +13 +39 опасность
простуды
987.6
штиль 0 16 км ясно +14.0 -7.0 23 +14 +40 опасность
простуды
987.3
СВ 1 16 км ясно +15.0 -6.0 23 +15 +29 опасность
простуды
987.0
СЗ 1 16 км ясно +15.0 -6.0 23 +15 +29 опасность
простуды
987.0
ЮЗ 1 16 км ясно +15.0 -6.0 23 +15 +32 опасность
простуды
986.7
СЗ 1 16 км ясно +15.0 -6.0 23 +15 +29 опасность
простуды
986.7
С 1 16 км ясно +16.0 -6.0 22 +16 +27 986.3
штиль 0 16 км ясно +16.0 -6.0 22 +16 +34 опасность
простуды
986.0
штиль 0 16 км ясно +16.0 -5.0 23 +16 +28 опасность
простуды
986.0
З 1 16 км ясно +16.0 -5.0 23 +16 +25 986.0
СЗ 1 16 км ясно +16.0 -5.0 23 +16 +25 985.7
СЗ 2 16 км ясно +16.0 -6.0 22 +15 +19 985.4
СЗ 1 16 км ясно +16.0 -5.0 23 +16 +21 985.4
СЗ 1 16 км ясно +16.0 -5.0 23 +16 +20 985.4
СЗ 1 16 км ясно +16.0 -5.0 23 +16 +18 985.4
СЗ 1 16 км ясно +15.0 -5.0 25 +15 +16 985.4
штиль 0 16 км ясно +15.0 -4.0 27 +15 +17 985.4
штиль 0 16 км ясно +12.0 -1.0 41 +12 +12 985.4
штиль 0 16 км ясно +10.0 0.0 50 +10 +10 985.4
штиль 0 16 км ясно +9.0 0.0 53 +9 +9 985.7
штиль 0 16 км ясно +9.0 0.0 53 +9 +9 985.7
штиль 0 16 км ясно +9.0 0.0 53 +9 +9 986.0
штиль 0 16 км ясно +7.0 0.0 61 +7 +7 986.7
штиль 0 16 км ясно +7.0 0.0 61 +7 +7 986.7
штиль 0 16 км ясно +6.0 +1.0 70 +5 +5 986.7
штиль 0 16 км ясно +7.0 +1.0 66 +6 +6 986.7
штиль 0 16 км ясно +6.0 +2.0 75 +5 +5 986.7
Местоположение метеостанции Griffin-Spalding County Airport: широта 33.2270 долгота -84.2749 высота над уровнем моря 292 м.
В архиве по умолчанию представлена погода в Гриффин за последние 1-2 суток. Обновление информации о фактической погоде в базе происходит ежечасно! Архивные данные за месяц целиком и за предыдущие месяцы Вы можете получить, выбрав интересующий диапазон дат из раскрывающегося списка и нажав кнопку "Ввод!".
Внимание! Архив погоды МЕТАР в базе сайта по станциям, не включенным в климатический монитор, хранится не более 60 дней. Нет смысла пытаться выбрать более раннюю дату.
*Определитесь, кто Вы:
Внимание! Время в таблицах - местное (без учета летнего времени). Для получения всемирного времени необходимо вычесть поправку, которая равна -5 ч.
Смотрите также архив погоды в соседних городах и на ближайших метеорологических станциях:
Партнеры нашего сайта:      
Пояснения к столбцам:
  • Ветер - указаны скорость ветра в м/с - средняя за 10 мин, порывы в срок и между сроками (в фигурных скобках) и направление, откуда дует ветер: С - северный,
  • СВ - северо-восточный, В - восточный, ЮВ - юго-восточный, Ю - южный, ЮЗ - юго-западный, З - западный, СЗ - северо-западный.
  • Видимость - горизонтальная дальность видимости в метрах или километрах. При видимости от 1 до 10 км при отсутствии осадков обычно наблюдается дымка, при ухудшении видимости до 1 км и менее - туман. В сухую погоду видимость может ухудшаться дымом, пылью или мглою.
  • Явления - указаны атмосферные явления, наблюдавшиеся в срок или в последний час перед сроком; фигурными скобками обозначены явления, наблюдавшиеся между сроками (за 1-3 часа до срока); квадратными скобками обозначены град или гололедные отложения с указанием их диаметра в мм.
  • Облачность - указаны через наклонную черту общая и нижняя облачность в баллах и высота нижней границы облаков в метрах; квадратными скобками обозначены формы облаков: Ci - перистые, Cs - перисто-слоистые, Cc - перисто-кучевые, Ac - высококучевые, As - высокослоистые, Sc - слоисто-кучевые, Ns - слоисто-дождевые, Cu - кучевые, Cb - кучево-дождевые. Подробнее классификацию облаков см. в Атласе облаков (PDF).
  • T - Температура воздуха - температура, измеренная на высоте 2 м над землей.
  • Td - Температура точки росы - температура, при понижении до которой содержащийся в воздухе водяной пар достигнет насыщения.
  • f - Относительная влажность воздуха - влажноcть воздуха, измеренная на высоте 2 м над землей.
  • Te - Эффективная температура - температура, которую ощущает одетый по сезону человек в тени. Характеристика душности погоды. При расчете учитывается влияние влажности воздуха и скорости ветра на теплоощущения человека.
  • Tes - Эффективная температура на солнце - температура, которую ощущает человек, с поправкой на солнечный нагрев. Характеристика знойности погоды. Зависит от высоты солнца над горизонтом, облачности и скорости ветра. Ночью, в пасмурную погоду, а также при ветре 12 м/с и более поправка равна нулю.
  • P - Атмосферное давление - приведенное к уровню моря атмосферное давление.
  • Po - Атмосферное давление - измеренное на уровне метеостанции атмосферное давление.
  • Tmin - Минимальная температура - минимум температуры воздуха на высоте 2 м над землей.
  • Tmax - Максимальная температура - максимум температуры воздуха на высоте 2 м над землей.
  • R - Количество осадков - Количество выпавших осадков за период времени, мм. При наведении курсора мыши на число - период времени, за который выпало указанное количество осадков.
  • R24 - Количество осадков - Количество выпавших осадков за 24 часа, мм.
  • S - Снежный покров - Высота снежного покрова, см. При наведении курсора мыши на число - состояние снежного покрова и степень покрытия местности в баллах.